Weather Roundup
Issued by NWS Chicago, IL

Home | Current Version | Previous Version | Text Only | Print | Product List | Glossary On
Versions: 1 2 3 4 5 6 7 8 9 10 11 12 13 14 15 16 17 18 19 20 21 22 23 24 25 26 27 28 29 30 31 32 33 34 35 36 37 38 39 40 41 42 43 44 45 46 47 48 49 50
000
NZUS59 KLOT 222310
HRRLOT

CHICAGO AREA WEATHER ROUNDUP
NATIONAL WEATHER SERVICE CHICAGO/ROMEOVILLE IL
600 PM CDT MON SEP 22 2014

NOTE: "FAIR" INDICATES FEW OR NO CLOUDS BELOW 12,000 FEET WITH NO
SIGNIFICANT WEATHER AND/OR OBSTRUCTIONS TO VISIBILITY.

* THESE STATIONS ARE NOT UNDER NWS QUALITY CONTROL. THEY ALSO MAY NOT
  REPORT WEATHER SUCH AS PRECIPITATION OR FOG.

ILZ005-006-012>014-019>023-230000-
NORTHEAST ILLINOIS

CITY           SKY/WX    TMP DP  RH WIND       PRES   REMARKS
OHARE          CLEAR     67  42  40 W3        30.21F
MIDWAY         CLEAR     64  46  52 E9        30.23S
AURORA         CLEAR     67  43  41 NW3       30.23F
LANSING*       CLEAR     61  44  53 E5        30.24S
JOLIET*        CLEAR     65  41  41 CALM      30.24S
WAUKEGAN       CLEAR     60  49  66 SE7       30.21S
DUPAGE AIRPORT CLEAR     67  44  43 W3        30.22F
WHEELING       CLEAR     67  44  43 W3        30.23F
KANKAKEE*      CLEAR     65  47  52 CALM      30.25R
MORRIS*        CLEAR     67  46  46 CALM      30.23S
LEWIS AIRPORT* CLEAR     64  45  49 CALM      30.24S
NORTHERLY IS     N/A     60  46  59 SE8         N/A
$$

WIZ051-052-058>065-066-070>072-230000-
SOUTHEAST WISCONSIN

CITY           SKY/WX    TMP DP  RH WIND       PRES   REMARKS
MILWAUKEE      PTCLDY    67  44  43 W9        30.20S
KENOSHA*       CLEAR     65  48  54 W3        30.21F
RACINE*        CLEAR     62  48  60 SE9       30.22S
BURLINGTON     CLEAR     64  45  49 W3        30.21S
WAUKESHA       CLEAR     64  46  52 W9        30.21S
WEST BEND      CLEAR     64  45  48 W6        30.20S
$$

INZ001>003-010>013-019-020-230000-
NORTHWEST INDIANA

CITY           SKY/WX    TMP DP  RH WIND       PRES   REMARKS
GARY*          CLEAR     63  43  48 NE7       30.24F
MICHIGAN CITY* NOT AVBL
RENSSELAER*    NOT AVBL
VALPARAISO     CLEAR     59  45  59 NE3       30.25S
$$

LMZ740>746-230000-
SOUTHERN LAKE MICHIGAN

STATION/POSITION TIME  SKY/WX   TEMP WIND        PRES    VSBY
                                AIR  DIR/SP/G
                 (UTC)          (F)  (DEG/KT/KT) (MB)    (MI)
HARRISON CRIB    NOT AVBL
BURNHAM HARBOR   2300            60  140/  4/  7   N/A
CALUMET HARBOR   2300            59  110/  5/  7 1022.6F
BURNS HARBOR     NOT AVBL
MICHIGAN CITY    NOT AVBL
$$

ABBREVIATIONS USED IN REMARKS
   TC - TEMPERATURE IN CELSIUS
  WCI - WIND CHILL INDEX
   HX - HEAT INDEX
  VSB - VISIBILITY
$$


USA.gov is the U.S. government's official web portal to all federal, state and local government web resources and services.